Regional Weather Roundup
Issued by NWS

Home | Current Version | Previous Version | Text Only | Print | Product List | Glossary Off
Versions: 1 2 3 4 5 6 7 8 9 10 11 12 13 14 15 16 17 18 19 20 21 22 23 24 25 26 27 28 29 30 31 32 33 34 35 36 37 38 39 40 41 42 43 44 45 46 47 48 49 50

000
ASUS43 KBIS 221820
RWRND

NORTH DAKOTA REGIONAL WEATHER ROUNDUP
NATIONAL WEATHER SERVICE BISMARCK ND
100 PM CDT MON SEP 22 2014

NOTE: "FAIR" INDICATES FEW OR NO CLOUDS BELOW 12,000 FEET WITH NO
SIGNIFICANT WEATHER AND/OR OBSTRUCTIONS TO VISIBILITY.


NDZ001>003-009>011-017-221900-
NORTHWEST NORTH DAKOTA

CITY           SKY/WX    TMP DP  RH WIND       PRES   REMARKS
WILLISTON      SUNNY     74  43  32 SE8       29.96F
6HR MIN TEMP:  38; 6HR MAX TEMP:  74;

MINOT          SUNNY     75  42  30 SE14      30.02F
MINOT AFB      SUNNY     76  43  31 S15       30.01F
$$

NDZ018>021-031>035-040>046-221900-
SOUTHWEST NORTH DAKOTA

CITY           SKY/WX    TMP DP  RH WIND       PRES   REMARKS
BISMARCK       SUNNY     78  45  30 S17       30.05F
6HR MIN TEMP:  42; 6HR MAX TEMP:  78;

DICKINSON      SUNNY     72  47  40 SE12      29.99F
GARRISON         N/A     72  47  40 SE13      30.03F
6HR MIN TEMP:  44; 6HR MAX TEMP:  73;

HETTINGER ARPT PTSUNNY   67  44  43 SE16      30.02F
$$

NDZ004>008-012>016-024-026-027-054-221900-
NORTHEAST NORTH DAKOTA

CITY           SKY/WX    TMP DP  RH WIND       PRES   REMARKS
GRAND FORKS    SUNNY     75  49  39 SW8       30.10F
GRND FRKS AFB  SUNNY     76  49  38 SW9       30.11F
DEVILS LAKE    SUNNY     73  46  38 SW7       30.07F
$$

NDZ022-023-025-028>030-036>039-047>053-221900-
SOUTHEAST NORTH DAKOTA

CITY           SKY/WX    TMP DP  RH WIND       PRES   REMARKS
FARGO          SUNNY     73  49  42 SW15      30.14F
6HR MIN TEMP:  47; 6HR MAX TEMP:  73;

JAMESTOWN      SUNNY     74  44  34 S13       30.10F
$$




USA.gov is the U.S. government's official web portal to all federal, state and local government web resources and services.